Date String (YYYY-MM-DD hh:mm:ss) UTC,Instrument flags,Ambient pressure (hPa),Sample flow (lpm),Bypass flow (lpm),Sample temperature (°C),Ambient temperature (°C),ASC tube jacket temperature (°C),LED temperature (°C),Box temperature (°C),Sample RH (%),Span deviation,Mass concentration (μg/m³),Mass concentration (μg/m³),Mass concentration (μg/m³)
DateTimeUTC,F1_M11,P_M11,Q1_M11,Q2_M11,T1_M11,T2_M11,T3_M11,T4_M11,T5_M11,U1_M11,ZSPAN_M11,X2_M11,X0_M11,X1_M11
2022-09-12 00:00:00,,0831.2,5.00,0.00,30.4,29.3,00.0,39.0,32.3,16.5,0001.8,0008.20,0012.94,0007.86
2022-09-12 00:01:00,,0831.2,4.99,0.00,30.4,28.3,00.0,39.0,32.3,17.0,0001.8,0008.18,0012.80,0007.85
2022-09-12 00:02:00,,0831.1,5.01,0.00,30.4,27.3,00.0,39.0,32.2,16.7,0001.8,0008.17,0012.54,0007.85
2022-09-12 00:03:00,,0831.2,5.00,0.00,30.3,27.3,00.0,38.9,32.1,16.8,0001.9,0008.15,0012.26,0007.83
2022-09-12 00:04:00,,0831.2,5.00,0.00,30.2,27.5,00.0,38.9,31.9,16.9,0002.4,0008.12,0011.45,0007.81
2022-09-12 00:05:00,,0831.2,4.99,0.00,30.2,27.8,00.0,38.9,32.0,17.3,0002.4,0008.07,0011.24,0007.79
2022-09-12 00:06:00,,0831.2,5.02,0.00,30.2,28.1,00.0,38.9,32.0,16.7,0002.0,0008.04,0010.84,0007.77
2022-09-12 00:07:00,,0831.2,5.00,0.00,30.2,28.4,00.0,38.9,32.0,16.6,0002.1,0008.00,0010.79,0007.72
2022-09-12 00:08:00,,0831.2,5.00,0.00,30.2,28.6,00.0,38.9,32.0,16.9,0001.9,0007.96,0010.36,0007.69
2022-09-12 00:09:00,,0831.2,5.00,0.00,30.2,28.7,00.0,38.9,32.1,17.3,0002.2,0007.91,0010.24,0007.66
2022-09-12 00:10:00,,0831.2,5.02,0.00,30.2,28.8,00.0,38.9,32.1,17.2,0002.2,0007.89,0010.13,0007.65
2022-09-12 00:11:00,,0831.2,4.98,0.00,30.3,29.0,00.0,38.9,32.1,17.3,0002.4,0007.86,0010.22,0007.63
2022-09-12 00:12:00,,0831.2,5.01,0.00,30.3,29.0,00.0,38.9,32.2,17.0,0002.8,0007.84,0010.53,0007.61
2022-09-12 00:13:00,,0831.2,4.99,0.00,30.3,29.1,00.0,39.0,32.2,17.1,0003.0,0007.87,0010.57,0007.60
2022-09-12 00:14:00,,0831.2,5.01,0.00,30.3,29.2,00.0,39.0,32.2,16.7,0002.6,0007.88,0010.61,0007.60
2022-09-12 00:15:00,,0831.2,4.98,0.00,30.4,29.2,00.0,39.0,32.3,16.6,0002.2,0007.88,0010.54,0007.59
2022-09-12 00:16:00,,0831.2,5.00,0.00,30.4,29.3,00.0,39.0,32.3,16.5,0002.3,0007.89,0010.76,0007.59
2022-09-12 00:17:00,,0831.2,4.99,0.00,30.4,28.2,00.0,39.0,32.3,16.8,0002.6,0007.91,0010.80,0007.60
2022-09-12 00:18:00,,0831.1,5.00,0.00,30.4,27.3,00.0,39.0,32.2,16.9,0002.5,0007.93,0010.80,0007.61
2022-09-12 00:19:00,,0831.1,5.00,0.00,30.3,27.3,00.0,38.9,32.1,16.9,0002.6,0007.93,0010.78,0007.61
2022-09-12 00:20:00,,0831.1,5.00,0.00,30.2,27.5,00.0,38.9,31.9,17.5,0002.4,0007.91,0010.76,0007.60
2022-09-12 00:21:00,,0831.1,5.00,0.00,30.2,27.8,00.0,38.9,31.9,16.8,0002.1,0007.89,0011.08,0007.58
2022-09-12 00:22:00,,0831.1,4.99,0.00,30.2,28.1,00.0,38.9,32.0,17.1,0001.9,0007.87,0010.99,0007.57
2022-09-12 00:23:00,,0831.1,5.02,0.00,30.2,28.3,00.0,38.9,32.0,17.2,0001.3,0007.85,0010.64,0007.57
2022-09-12 00:24:00,,0831.1,5.00,0.00,30.2,28.5,00.0,38.9,32.0,17.2,0001.3,0007.81,0010.58,0007.54
2022-09-12 00:25:00,,0831.1,5.01,0.00,30.2,28.7,00.0,38.9,32.1,17.0,0001.4,0007.77,0010.55,0007.52
2022-09-12 00:26:00,,0831.1,4.99,0.00,30.2,28.8,00.0,38.9,32.1,16.9,0001.6,0007.77,0010.66,0007.51
2022-09-12 00:27:00,,0831.1,5.02,0.00,30.2,28.9,00.0,38.9,32.1,16.8,0001.5,0007.77,0010.50,0007.49
2022-09-12 00:28:00,,0831.0,5.01,0.00,30.3,29.0,00.0,38.9,32.2,16.9,0001.4,0007.76,0010.93,0007.49
2022-09-12 00:29:00,,0831.0,4.98,0.00,30.3,29.1,00.0,39.0,32.2,17.1,0001.2,0007.76,0011.22,0007.47
2022-09-12 00:30:00,,0831.0,5.01,0.00,30.3,29.2,00.0,39.0,32.2,17.3,0000.9,0007.76,0011.23,0007.47
2022-09-12 00:31:00,,0831.0,4.99,0.00,30.4,29.2,00.0,39.0,32.3,17.2,0000.6,0007.76,0011.24,0007.48
2022-09-12 00:32:00,,0831.0,5.01,0.00,30.4,29.3,00.0,39.0,32.3,17.3,0000.7,0007.78,0010.98,0007.49
2022-09-12 00:33:00,,0831.0,4.99,0.00,30.4,29.0,00.0,39.0,32.3,17.5,0000.9,0007.78,0010.83,0007.49
2022-09-12 00:34:00,,0831.0,5.00,0.00,30.4,27.7,00.0,39.0,32.2,17.9,0000.9,0007.79,0010.85,0007.49
2022-09-12 00:35:00,,0831.0,4.98,0.00,30.4,27.3,00.0,39.0,32.1,17.6,0001.0,0007.81,0010.96,0007.52
2022-09-12 00:36:00,,0831.0,5.00,0.00,30.3,27.4,00.0,38.9,32.0,16.8,0000.9,0007.85,0011.07,0007.55
2022-09-12 00:37:00,,0831.0,5.01,0.00,30.2,27.7,00.0,38.9,32.0,17.2,0000.8,0007.88,0011.06,0007.57
2022-09-12 00:38:00,,0831.0,5.01,0.00,30.2,28.0,00.0,38.9,32.0,16.7,0000.6,0007.87,0011.13,0007.57
2022-09-12 00:39:00,,0831.0,4.99,0.00,30.2,28.2,00.0,38.9,32.0,17.0,0000.5,0007.86,0010.80,0007.57
2022-09-12 00:40:00,,0831.1,5.00,0.00,30.2,28.4,00.0,38.9,32.0,16.8,0000.5,0007.86,0010.60,0007.57
2022-09-12 00:41:00,,0831.0,5.00,0.00,30.2,28.6,00.0,38.9,32.1,17.0,0000.7,0007.86,0010.60,0007.56
2022-09-12 00:42:00,,0831.0,5.00,0.00,30.2,28.7,00.0,38.9,32.1,16.8,0001.1,0007.89,0010.70,0007.57
2022-09-12 00:43:00,,0831.0,5.00,0.00,30.2,28.8,00.0,38.9,32.1,17.1,0001.3,0007.90,0010.81,0007.58
2022-09-12 00:44:00,,0831.0,5.01,0.00,30.2,29.0,00.0,38.9,32.1,17.0,0001.1,0007.90,0010.84,0007.57
2022-09-12 00:45:00,,0831.0,4.98,0.00,30.3,29.0,00.0,39.0,32.2,17.0,0001.2,0007.90,0010.83,0007.58
2022-09-12 00:46:00,,0831.0,5.01,0.00,30.3,29.1,00.0,39.0,32.2,17.3,0001.1,0007.88,0010.78,0007.57
2022-09-12 00:47:00,,0831.0,4.98,0.00,30.3,29.2,00.0,39.0,32.2,17.0,0001.3,0007.86,0010.69,0007.55
2022-09-12 00:48:00,,0831.0,5.01,0.00,30.4,29.2,00.0,39.0,32.3,16.7,0001.1,0007.87,0010.68,0007.55
2022-09-12 00:49:00,,0831.0,4.99,0.00,30.4,29.3,00.0,39.0,32.3,16.9,0001.2,0007.86,0010.63,0007.55
2022-09-12 00:50:00,,0831.0,5.01,0.00,30.4,28.3,00.0,39.0,32.3,16.4,0001.0,0007.87,0010.52,0007.56
2022-09-12 00:51:00,,0831.0,4.99,0.00,30.4,26.7,00.0,39.0,32.1,16.5,0001.1,0007.87,0010.40,0007.57
2022-09-12 00:52:00,,0831.0,5.00,0.00,30.3,26.4,00.0,38.9,32.0,16.2,0001.3,0007.90,0010.41,0007.59
2022-09-12 00:53:00,,0831.0,5.00,0.00,30.2,26.6,00.0,38.8,31.8,16.5,0001.7,0007.88,0010.36,0007.59
2022-09-12 00:54:00,,0831.0,5.01,0.00,30.1,26.9,00.0,38.8,31.8,16.5,0001.8,0007.85,0010.17,0007.58
2022-09-12 00:55:00,,0831.0,5.00,0.00,30.0,27.3,00.0,38.8,31.8,16.5,0002.0,0007.84,0010.19,0007.57
2022-09-12 00:56:00,,0831.0,5.00,0.00,30.0,27.7,00.0,38.8,31.8,16.0,0001.6,0007.83,0010.18,0007.57
2022-09-12 00:57:00,,0831.0,4.99,0.00,30.0,28.0,00.0,38.8,31.8,16.0,0001.6,0007.84,0010.19,0007.57
2022-09-12 00:58:00,,0831.1,5.02,0.00,30.0,28.2,00.0,38.8,31.9,15.8,0001.7,0007.83,0010.24,0007.55
2022-09-12 00:59:00,,0831.1,4.99,0.00,30.0,28.4,00.0,38.8,31.9,15.9,0001.7,0007.81,0010.16,0007.54
